Hot Springs, VA

6:51 PM EDT on March 23, 2017 (GMT -0400)
Ingalls

Weather History for KHSP - June, 2014

Change the Weather History Date:

Wednesday, June 4, 2014

  Actual Average Record
Temperature  
Mean Temperature 64 °F -  
Max Temperature 72 °F 66 °F 82 °F (2002)
Min Temperature 58 °F 51 °F 39 °F (1997)
Growing Degree Days 14 (Base 50)    
Moisture  
Dew Point 57 °F    
Average Humidity 81    
Maximum Humidity 96    
Minimum Humidity 59    
Precipitation  
Precipitation 0.30 in - - ()
Sea Level Pressure  
Sea Level Pressure 30.01 in    
Wind  
Wind Speed 11 mph (WSW)    
Max Wind Speed 28 mph    
Max Gust Speed 32 mph    
Visibility 8 miles    
Events Fog , Rain , Thunderstorm    
Averages and records for this station are not official NWS values.
T = Trace of Precipitation, MM = Missing Value Source: NWS Daily Summary

Daily Weather History Graph

Daily Weather History Graph

Search for Another Location

Airport or City:

Trip Planner

Search our weather history database for the weather conditions in past years. The results will help you decide how hot, cold, wet, or windy it might be!

Date:

Astronomy

Jun. 04, 2014 Rise Set
Actual Time 5:57 AM EDT 8:38 PM EDT
Civil Twilight 5:26 AM EDT 9:09 PM EDT
Nautical Twilight 4:48 AM EDT 9:47 PM EDT
Astronomical Twilight 4:04 AM EDT 10:31 PM EDT
Moon 12:10 PM EDT (6/4) 12:40 AM EDT (6/4)
Length of Visible Light 15h 42m
Length of Day
14h 40m
Waxing Crescent, 39% of the Moon is Illuminated
Jun 4
Waxing Crescent
Jun 5
First Quarter
Jun 13
Full
Jun 19
Last Quarter
Jun 27
New

Hourly Weather History & Observations

Time (EDT) Temp. Dew Point Humidity Pressure Visibility Wind Dir Wind Speed Gust Speed Precip Events Conditions
12:15 AM 61.7 °F 57.7 °F 87% 30.09 in 10.0 mi West 15.0 mph - N/A   Clear
12:35 AM 61.0 °F 58.1 °F 90% 30.09 in 10.0 mi West 12.7 mph - N/A   Clear
12:55 AM 60.8 °F 57.7 °F 90% 30.09 in 10.0 mi West 15.0 mph - N/A   Clear
1:15 AM 60.8 °F 57.4 °F 88% 30.08 in 10.0 mi West 13.8 mph - N/A   Clear
1:35 AM 60.8 °F 56.8 °F 87% 30.08 in 10.0 mi WNW 15.0 mph - N/A   Clear
1:55 AM 60.6 °F 56.7 °F 87% 30.07 in 10.0 mi West 12.7 mph 18.4 mph N/A   Clear
2:15 AM 60.4 °F 57.2 °F 89% 30.07 in 10.0 mi West 12.7 mph - N/A   Clear
2:30 AM 60.3 °F 57.0 °F 89% 30.06 in 10.0 mi West 10.4 mph - N/A   Scattered Clouds
2:55 AM 60.1 °F 57.2 °F 90% 30.07 in 10.0 mi West 10.4 mph - N/A   Scattered Clouds
3:15 AM 60.1 °F 57.4 °F 91% 30.07 in 10.0 mi West 10.4 mph - N/A   Mostly Cloudy
3:35 AM 60.3 °F 57.4 °F 90% 30.07 in 10.0 mi West 10.4 mph - N/A   Overcast
3:55 AM 60.1 °F 57.2 °F 90% 30.07 in 10.0 mi West 12.7 mph - N/A   Overcast
4:15 AM 59.9 °F 57.2 °F 91% 30.07 in 10.0 mi West 12.7 mph - N/A   Mostly Cloudy
4:35 AM 59.4 °F 57.2 °F 93% 30.06 in 10.0 mi West 12.7 mph - N/A   Overcast
5:15 AM 59.0 °F 57.2 °F 94% 30.05 in 7.0 mi West 12.7 mph - N/A   Overcast
5:35 AM 59.0 °F 57.0 °F 93% 30.06 in 7.0 mi West 10.4 mph - N/A   Overcast
5:55 AM 59.0 °F 57.2 °F 94% 30.07 in 4.0 mi West 9.2 mph - N/A   Overcast
6:15 AM 58.8 °F 57.2 °F 94% 30.07 in 3.0 mi West 10.4 mph - N/A   Overcast
6:35 AM 58.8 °F 57.2 °F 94% 30.06 in 3.0 mi West 9.2 mph - N/A   Overcast
6:55 AM 59.0 °F 57.4 °F 94% 30.06 in 1.8 mi West 9.2 mph - N/A   Overcast
7:15 AM 59.2 °F 57.7 °F 95% 30.07 in 0.8 mi West 10.4 mph - N/A   Overcast
7:35 AM 59.4 °F 58.1 °F 96% 30.07 in 0.2 mi West 9.2 mph - N/A Fog Fog
7:55 AM 59.2 °F 57.9 °F 96% 30.07 in 0.2 mi WNW 5.8 mph - N/A Fog Fog
8:15 AM 60.1 °F 58.8 °F 96% 30.07 in 2.0 mi West 6.9 mph - N/A   Overcast
8:35 AM 60.6 °F 59.2 °F 95% 30.08 in 2.5 mi WNW 5.8 mph - N/A   Overcast
8:55 AM 61.3 °F 59.4 °F 93% 30.09 in 4.0 mi NNW 3.5 mph - N/A   Overcast
9:15 AM 61.7 °F 59.0 °F 91% 30.09 in 5.0 mi West 4.6 mph - N/A   Overcast
9:35 AM 62.8 °F 59.0 °F 87% 30.09 in 10.0 mi WNW 5.8 mph - N/A   Mostly Cloudy
9:55 AM 63.5 °F 59.2 °F 86% 30.08 in 10.0 mi West 6.9 mph - N/A   Mostly Cloudy
10:10 AM 64.4 °F 58.3 °F 80% 30.07 in 10.0 mi West 4.6 mph - N/A   Scattered Clouds
10:55 AM 66.4 °F 56.8 °F 71% 30.07 in 10.0 mi West 6.9 mph - N/A   Mostly Cloudy
11:15 AM 67.3 °F 56.5 °F 68% 30.07 in 10.0 mi West 8.1 mph - N/A   Mostly Cloudy
11:35 AM 67.8 °F 55.9 °F 66% 30.07 in 10.0 mi West 8.1 mph - N/A   Mostly Cloudy
11:50 AM 67.6 °F 56.1 °F 67% 30.07 in 10.0 mi SW 6.9 mph - N/A   Mostly Cloudy
12:15 PM 68.7 °F 55.9 °F 64% 30.06 in 10.0 mi West 9.2 mph - N/A   Scattered Clouds
12:30 PM 68.2 °F 56.3 °F 66% 30.06 in 10.0 mi West 6.9 mph - N/A   Mostly Cloudy
12:50 PM 68.7 °F 57.2 °F 67% 30.05 in 10.0 mi WSW 6.9 mph - N/A   Overcast
1:15 PM 68.7 °F 57.9 °F 68% 30.04 in 7.0 mi WSW 9.2 mph - N/A   Mostly Cloudy
1:35 PM 69.4 °F 58.3 °F 68% 30.03 in 10.0 mi West 8.1 mph - N/A   Mostly Cloudy
1:55 PM 70.2 °F 57.9 °F 65% 30.03 in 10.0 mi West 12.7 mph 18.4 mph N/A   Mostly Cloudy
2:15 PM 69.3 °F 57.7 °F 67% 30.02 in 10.0 mi West 9.2 mph - N/A   Scattered Clouds
2:35 PM 70.3 °F 57.4 °F 63% 30.02 in 10.0 mi West 9.2 mph - N/A   Scattered Clouds
3:00 PM 70.2 °F 56.8 °F 63% 30.01 in 10.0 mi WSW 11.5 mph 16.1 mph N/A   Scattered Clouds
3:15 PM 69.8 °F 56.8 °F 63% 30.00 in 10.0 mi SW 8.1 mph - N/A   Mostly Cloudy
3:35 PM 70.3 °F 56.1 °F 61% 29.99 in 10.0 mi SW 9.2 mph - N/A   Mostly Cloudy
3:50 PM 71.2 °F 56.1 °F 59% 29.98 in 10.0 mi West 9.2 mph - N/A   Scattered Clouds
4:10 PM 70.2 °F 56.1 °F 61% 29.98 in 10.0 mi SW 4.6 mph - N/A   Clear
4:35 PM 70.0 °F 57.2 °F 64% 29.97 in 10.0 mi WSW 8.1 mph 16.1 mph N/A   Mostly Cloudy
4:50 PM 68.9 °F 56.5 °F 65% 29.96 in 10.0 mi SW 8.1 mph - N/A   Overcast
5:15 PM 68.9 °F 57.4 °F 67% 29.95 in 10.0 mi SW 8.1 mph - N/A Thunderstorm Mostly Cloudy
5:35 PM 68.9 °F 57.6 °F 67% 29.95 in 10.0 mi SSW 20.7 mph 27.6 mph N/A   Mostly Cloudy
5:55 PM 66.7 °F 53.2 °F 62% 29.94 in 10.0 mi WSW 15.0 mph 19.6 mph N/A Thunderstorm Thunderstorm
6:15 PM 62.4 °F 55.2 °F 77% 29.93 in 10.0 mi WSW 15.0 mph - N/A   Mostly Cloudy
6:35 PM 64.6 °F 53.4 °F 67% 29.93 in 10.0 mi SW 10.4 mph - N/A   Overcast
6:55 PM 65.3 °F 51.8 °F 62% 29.92 in 10.0 mi SW 5.8 mph - N/A   Scattered Clouds
7:15 PM 63.9 °F 52.7 °F 67% 29.93 in 10.0 mi WSW 8.1 mph - N/A   Scattered Clouds
7:35 PM 65.3 °F 54.9 °F 69% 29.93 in 10.0 mi South 6.9 mph - N/A Thunderstorm Thunderstorm
7:55 PM 62.8 °F 57.7 °F 84% 29.91 in 10.0 mi South 4.6 mph - N/A Rain , Thunderstorm Rain
8:15 PM 63.0 °F 60.3 °F 91% 29.92 in 5.0 mi South 9.2 mph - N/A Rain Light Rain
8:35 PM 63.3 °F 59.0 °F 86% 29.92 in 10.0 mi SSW 9.2 mph - N/A   Light Drizzle
8:55 PM 61.9 °F 59.2 °F 91% 29.93 in 1.2 mi West 9.2 mph - 0.04 in Rain Rain
9:15 PM 61.2 °F 59.2 °F 93% 29.91 in 5.0 mi WSW 17.3 mph 23.0 mph 0.07 in Rain Rain
9:35 PM 60.4 °F 58.3 °F 93% 29.91 in 5.0 mi WSW 15.0 mph 24.2 mph 0.14 in Rain Light Rain
9:55 PM 60.3 °F 58.1 °F 93% 29.89 in 7.0 mi WSW 18.4 mph 21.9 mph 0.17 in Rain Light Rain
10:15 PM 60.3 °F 58.5 °F 94% 29.89 in 0.2 mi WSW 19.6 mph 24.2 mph N/A Rain Light Rain
10:35 PM 60.3 °F 58.5 °F 94% 29.89 in 10.0 mi WSW 15.0 mph 21.9 mph N/A   Overcast
10:55 PM 60.4 °F 58.8 °F 94% 29.89 in 2.0 mi WSW 18.4 mph - N/A   Overcast
11:15 PM 60.8 °F 59.0 °F 94% 29.88 in 7.0 mi WSW 17.3 mph - N/A   Overcast
11:35 PM 60.8 °F 59.0 °F 94% 29.86 in 0.2 mi WSW 20.7 mph 27.6 mph 0.06 in Rain , Thunderstorm Thunderstorms and Rain
11:55 PM 60.6 °F 59.0 °F 94% 29.83 in 5.0 mi WSW 27.6 mph 32.2 mph 0.09 in Rain Light Rain